Regional Weather Roundup
Issued by NWS

Home | Current Version | Previous Version | Graphics & Text | Print | Product List | Glossary On
Versions: 1 2 3 4 5 6 7 8 9 10 11 12 13 14 15 16 17 18 19 20 21 22 23 24 25 26 27 28 29 30 31 32 33 34 35 36 37 38 39 40 41 42 43 44 45 46 47 48 49 50
000
ASUS43 KMKX 222328
RWRWI

WISCONSIN REGIONAL WEATHER ROUNDUP
NATIONAL WEATHER SERVICE MILWAUKEE/SULLIVAN WI
600 PM CDT FRI MAY 22 2015

NOTE: "FAIR" INDICATES FEW OR NO CLOUDS BELOW 12,000 FEET WITH NO
SIGNIFICANT WEATHER AND/OR OBSTRUCTIONS TO VISIBILITY.

WIZ001-002-006>008-014>016-023>028-230000-
NORTHWEST WISCONSIN

CITY           SKY/WX    TMP DP  RH WIND       PRES   REMARKS
SUPERIOR ARPT  SUNNY     51  37  59 NE7       30.18S
ASHLAND        CLOUDY    70  32  24 S6        30.19S HAZE
HAYWARD        SUNNY     71  26  18 N5        30.19S
SIREN          SUNNY     71  32  23 CALM      30.19S
CUMBERLAND     SUNNY     68  30  24 CALM      30.20S
RICE LAKE      SUNNY     71  31  23 W5        30.21F
CHETEK         SUNNY     69  35  27 CALM      30.19F
LADYSMITH      SUNNY     70  37  29 S3        30.21F
EAU CLAIRE     SUNNY     71  33  24 W3        30.19F
MENOMONIE      SUNNY     71  34  25 CALM      30.20S
NEW RICHMOND   SUNNY     71  32  23 CALM      30.19F
OSCEOLA          N/A     71  36  27 CALM      30.21F HAZE
$$

WIZ003>005-009-010-017-018-230000-
NORTH CENTRAL WISCONSIN

CITY           SKY/WX    TMP DP  RH WIND       PRES   REMARKS
MANITOWISH WTR SUNNY     65  27  23 NW5G10    30.21S
ARBOR VITAE    SUNNY     65  24  21 N6        30.21S
WOODRUFF       SUNNY     65  24  21 N6        30.21S
RHINELANDER    SUNNY     67  26  21 MISG      30.21S
EAGLE RIVER    SUNNY     66  18  15 NW9       30.21S
LAND O LAKES   SUNNY     66  16  14 NW6       30.22S
PHILLIPS       SUNNY     68  31  25 NW5       30.19F
TOMAHAWK       SUNNY     68  27  21 NW8       30.21S
MEDFORD        SUNNY     67  33  28 W6        30.21S
MERRILL        SUNNY     69  32  25 W5        30.20F
$$

WIZ029-030-035-036-043>047-230000-
CENTRAL WISCONSIN

CITY           SKY/WX    TMP DP  RH WIND       PRES   REMARKS
WAUSAU         SUNNY     69  31  24 W9        30.19F
MOSINEE        SUNNY     66  36  32 SW10      30.22
MARSHFIELD     SUNNY     70  32  24 N8        30.20F
STEVENS POINT  SUNNY     67  33  28 W6        30.22S
WAUPACA        SUNNY     72  28  19 SW6       30.21S
WAUTOMA        SUNNY     72  27  18 VRB3      30.20F
WISC RAPIDS    SUNNY     72  30  21 N7        30.21F
CAMP DOUGLAS   MOSUNNY   71  36  27 VRB1      30.19S
$$

WIZ011>013-019>022-031-037>040-048>050-230000-
NORTHEAST WISCONSIN

CITY           SKY/WX    TMP DP  RH WIND       PRES   REMARKS
ANTIGO         SUNNY     66  32  27 NW8       30.21S
SHAWANO        SUNNY     71  31  22 W6        30.20S
OCONTO         SUNNY     59  32  36 SE10G17   30.22S
STURGEON BAY   SUNNY     52  25  35 S13       30.27S
GREEN BAY      SUNNY     64  33  31 SE13G23   30.22R
MANITOWOC      SUNNY     52  28  39 S10       30.27F
APPLETON       MOSUNNY   66  34  30 S10       30.22S
CLINTONVILLE   SUNNY     70  28  21 NW8       30.20S
OSHKOSH        SUNNY     66  36  32 E7        30.21F
$$

WIZ032>034-041-042-053>061-230000-
SOUTHWEST WISCONSIN

CITY           SKY/WX    TMP DP  RH WIND       PRES   REMARKS
LA CROSSE      PTSUNNY   75  32  20 NW5       30.18S
SPARTA         PTSUNNY   71  33  24 CALM      30.20S
VIROQUA        PTSUNNY   70  32  24 CALM      30.21R
BOSCOBEL       CLOUDY    74  38  27 CALM      30.19S
PRAIRIE DU CHI CLOUDY    73  38  28 S5        30.18S
PLATTEVILLE    CLOUDY    72  32  23 W3        30.20F
$$

WIZ056-057-062-063-064-067-068-230000-
SOUTH CENTRAL WISCONSIN

CITY           SKY/WX    TMP DP  RH WIND       PRES   REMARKS
REEDSBURG      PTSUNNY   71  39  31 CALM      30.19S
BARABOO/DELLS  PTSUNNY   71  34  26 W3        30.20S
LONE ROCK      PTSUNNY   73  37  27 NW3       30.19R
MINERAL POINT  CLOUDY    72  32  23 S3        30.21S
MADISON        PTSUNNY   72  38  29 CALM      30.20S
MIDDLETON      PTSUNNY   73  27  18 SE5       30.21R
WATERTOWN      MOSUNNY   70  37  30 CALM      30.21S
MONROE         CLOUDY    72  34  25 CALM      30.21S
JANESVILLE     SUNNY     73  34  23 W3        30.20
$$

WIZ051-052-058>065-066-070>072-230000-
SOUTHEAST WISCONSIN

CITY           SKY/WX    TMP DP  RH WIND       PRES   REMARKS
MILWAUKEE      PTSUNNY   53  27  36 SE8       30.26S
WAUKESHA       PTSUNNY   63  34  34 E9        30.24S
MILWAUKEE/TIMM SUNNY     57  16  19 SE10      30.26S
RACINE         MOSUNNY   53  28  38 E7        30.27F
BURLINGTON     PTSUNNY   60  32  34 E7        30.24R
KENOSHA        MOSUNNY   56  28  34 SE8       30.26R
FOND DU LAC    SUNNY     69  30  23 SW5       30.21F
SHEBOYGAN      SUNNY     56  24  29 SE9       30.27S
WEST BEND      SUNNY     59  27  29 SE8       30.25S
JUNEAU         MOSUNNY   68  33  26 N5        30.22F
$$

LSZ147-162-230000-
LAKE SUPERIOR

STATION/POSITION TIME  TEMP    WIND        PRES    WAVE
                       AIR SEA DIR/SP/G            HT/PER
                 (UTC) (F)     (DEG/KT/KT) (MB)    (FT/S)
W MID LAKE BUOY  2250   40 37  120/  6/  8   N/A     0
DEVILS ISLAND    2300   43      60/  5/  6   N/A
PORT WING        2240   45      20/  7/  8   N/A
SAXON HARBOR     2200   59      60/  6/  7   N/A
$$

LMZ867-665-643>646-230000-
LAKE MICHIGAN

STATION/POSITION TIME  TEMP    WIND        PRES    WAVE
                       AIR SEA DIR/SP/G            HT/PER
                 (UTC) (F)     (DEG/KT/KT) (MB)    (FT/S)
CHAMBERS ISLAND  2100   54     130/ 10/ 16   N/A
N MID LAKE BUOY  2250   42 36  180/  8/ 10   N/A     0
NORTHPORT PIER   2200   48     140/ 10/ 14   N/A
SISTER BAY       2132   54     160/ 12/ 16   N/A
KEWAUNEE LAKESHO 2300   45     160/ 11/ 12   N/A
SHEBOYGAN LAKESH 2300          120/ 10/ 11   N/A
PORT WASHINGTON  2200   48     130/  2/  4   N/A
ATWATER BUOY     2300   45 45  100/  2/  4   N/A
MILWAUKEE LAKESH 2300   46      70/  4/  5   N/A
S MID LAKE BUOY  2250   42 38   50/ 10/ 10   N/A     0
KENOSHA   LAKESH 2300   51     130/  3/  5   N/A
$$

TC  - TEMPERATURE IN CELSIUS
VSB - VISIBILITY IN STATUTE MILES
WCI - WIND CHILL INDEX
HX  - HEAT INDEX



USA.gov is the U.S. government's official web portal to all federal, state and local government web resources and services.